Year,Month,Day,Hour,Minute,Value (Times are PST for temperature in C)
2016,05,15,00,00,11.60
2016,05,15,00,01,11.60
2016,05,15,00,02,11.60
2016,05,15,00,03,11.60
2016,05,15,00,04,11.60
2016,05,15,00,05,11.60
2016,05,15,00,06,11.60
2016,05,15,00,07,11.60
2016,05,15,00,08,11.60
2016,05,15,00,09,11.60
2016,05,15,00,10,11.50
2016,05,15,00,11,11.50
2016,05,15,00,12,11.50
2016,05,15,00,13,11.60
2016,05,15,00,14,11.50
2016,05,15,00,15,11.50
2016,05,15,00,16,11.50
2016,05,15,00,17,11.50
2016,05,15,00,18,11.50
2016,05,15,00,19,11.40
2016,05,15,00,20,11.40
2016,05,15,00,21,11.40
2016,05,15,00,22,11.40
2016,05,15,00,23,11.40
2016,05,15,00,24,11.40
2016,05,15,00,25,11.40
2016,05,15,00,26,11.40
2016,05,15,00,27,11.40
2016,05,15,00,28,11.40
2016,05,15,00,29,11.30
2016,05,15,00,30,11.30
2016,05,15,00,31,11.30
2016,05,15,00,32,11.30
2016,05,15,00,33,11.30
2016,05,15,00,34,11.30
2016,05,15,00,35,11.30
2016,05,15,00,36,11.30
2016,05,15,00,37,11.30
2016,05,15,00,38,11.30
2016,05,15,00,39,11.30
2016,05,15,00,40,11.30
2016,05,15,00,41,11.30
2016,05,15,00,42,11.30
2016,05,15,00,43,11.30
2016,05,15,00,44,11.30
2016,05,15,00,45,11.30
2016,05,15,00,46,11.30
2016,05,15,00,47,11.30
2016,05,15,00,48,11.30
2016,05,15,00,49,11.30
2016,05,15,00,50,11.30
2016,05,15,00,51,11.30
2016,05,15,00,52,11.30
2016,05,15,00,53,11.30
2016,05,15,00,54,11.30
2016,05,15,00,55,11.30
2016,05,15,00,56,11.30
2016,05,15,00,57,11.30
2016,05,15,00,58,11.30
2016,05,15,00,59,11.30
2016,05,15,01,00,11.30
2016,05,15,01,01,11.30
2016,05,15,01,02,11.30
2016,05,15,01,03,11.30
2016,05,15,01,04,11.30
2016,05,15,01,05,11.30
2016,05,15,01,06,11.30
2016,05,15,01,07,11.30
2016,05,15,01,08,11.30
2016,05,15,01,09,11.30
2016,05,15,01,10,11.30
2016,05,15,01,11,11.30
2016,05,15,01,12,11.30
2016,05,15,01,13,11.30
2016,05,15,01,14,11.30
2016,05,15,01,15,11.20
2016,05,15,01,16,11.20
2016,05,15,01,17,11.20
2016,05,15,01,18,11.20
2016,05,15,01,19,11.20
2016,05,15,01,20,11.20
2016,05,15,01,21,11.20
2016,05,15,01,22,11.20
2016,05,15,01,23,11.20
2016,05,15,01,24,11.20
2016,05,15,01,25,11.20
2016,05,15,01,26,11.20
2016,05,15,01,27,11.20
2016,05,15,01,28,11.10
2016,05,15,01,29,11.10
2016,05,15,01,30,11.10
2016,05,15,01,31,11.10
2016,05,15,01,32,11.10
2016,05,15,01,33,11.10
2016,05,15,01,34,11.10
2016,05,15,01,35,11.10
2016,05,15,01,36,11.10
2016,05,15,01,37,11.10
2016,05,15,01,38,11.10
2016,05,15,01,39,11.10
2016,05,15,01,40,11.10
2016,05,15,01,41,11.10
2016,05,15,01,42,11.10
2016,05,15,01,43,11.10
2016,05,15,01,44,11.00
2016,05,15,01,45,11.10
2016,05,15,01,46,11.10
2016,05,15,01,47,11.10
2016,05,15,01,48,11.10
2016,05,15,01,49,11.00
2016,05,15,01,50,11.00
2016,05,15,01,51,11.00
2016,05,15,01,52,11.00
2016,05,15,01,53,10.90
2016,05,15,01,54,10.90
2016,05,15,01,55,10.90
2016,05,15,01,56,10.90
2016,05,15,01,57,10.90
2016,05,15,01,58,10.90
2016,05,15,01,59,10.80
2016,05,15,02,00,10.80
2016,05,15,02,01,10.80
2016,05,15,02,02,10.80
2016,05,15,02,03,10.70
2016,05,15,02,04,10.70
2016,05,15,02,05,10.70
2016,05,15,02,06,10.70
2016,05,15,02,07,10.70
2016,05,15,02,08,10.70
2016,05,15,02,09,10.60
2016,05,15,02,10,10.60
2016,05,15,02,11,10.60
2016,05,15,02,12,10.60
2016,05,15,02,13,10.60
2016,05,15,02,14,10.60
2016,05,15,02,15,10.50
2016,05,15,02,16,10.50
2016,05,15,02,17,10.50
2016,05,15,02,18,10.50
2016,05,15,02,19,10.40
2016,05,15,02,20,10.40
2016,05,15,02,21,10.40
2016,05,15,02,22,10.40
2016,05,15,02,23,10.40
2016,05,15,02,24,10.40
2016,05,15,02,25,10.40
2016,05,15,02,26,10.30
2016,05,15,02,27,10.30
2016,05,15,02,28,10.30
2016,05,15,02,29,10.30
2016,05,15,02,30,10.30
2016,05,15,02,31,10.20
2016,05,15,02,32,10.20
2016,05,15,02,33,10.20
2016,05,15,02,34,10.20
2016,05,15,02,35,10.20
2016,05,15,02,36,10.20
2016,05,15,02,37,10.10
2016,05,15,02,38,10.10
2016,05,15,02,39,10.10
2016,05,15,02,40,10.10
2016,05,15,02,41,10.10
2016,05,15,02,42,10.10
2016,05,15,02,43,10.10
2016,05,15,02,44,10.00
2016,05,15,02,45,10.00
2016,05,15,02,46,10.10
2016,05,15,02,47,10.10
2016,05,15,02,48,10.10
2016,05,15,02,49,10.00
2016,05,15,02,50,10.00
2016,05,15,02,51,10.00
2016,05,15,02,52,10.00
2016,05,15,02,53,10.00
2016,05,15,02,54,10.00
2016,05,15,02,55,10.00
2016,05,15,02,56,10.00
2016,05,15,02,57,10.00
2016,05,15,02,58,10.00
2016,05,15,02,59,10.00
2016,05,15,03,00,10.00
2016,05,15,03,01,10.00
2016,05,15,03,02,10.00
2016,05,15,03,03,10.00
2016,05,15,03,04,10.00
2016,05,15,03,05,10.00
2016,05,15,03,06,9.90
2016,05,15,03,07,9.90
2016,05,15,03,08,9.90
2016,05,15,03,09,9.90
2016,05,15,03,10,9.90
2016,05,15,03,11,9.90
2016,05,15,03,12,9.90
2016,05,15,03,13,10.00
2016,05,15,03,14,10.00
2016,05,15,03,15,10.00
2016,05,15,03,16,10.00
2016,05,15,03,17,10.00
2016,05,15,03,18,10.00
2016,05,15,03,19,10.00
2016,05,15,03,20,10.00
2016,05,15,03,21,10.00
2016,05,15,03,22,10.00
2016,05,15,03,23,10.00
2016,05,15,03,24,10.00
2016,05,15,03,25,10.00
2016,05,15,03,26,10.10
2016,05,15,03,27,10.10
2016,05,15,03,28,10.00
2016,05,15,03,29,10.00
2016,05,15,03,30,10.00
2016,05,15,03,31,10.00
2016,05,15,03,32,10.00
2016,05,15,03,33,10.00
2016,05,15,03,34,10.00
2016,05,15,03,35,10.00
2016,05,15,03,36,10.00
2016,05,15,03,37,10.00
2016,05,15,03,38,10.00
2016,05,15,03,39,10.00
2016,05,15,03,40,10.00
2016,05,15,03,41,10.00
2016,05,15,03,42,10.00
2016,05,15,03,43,10.00
2016,05,15,03,44,10.00
2016,05,15,03,45,10.00
2016,05,15,03,46,10.00
2016,05,15,03,47,10.00
2016,05,15,03,48,10.00
2016,05,15,03,49,10.00
2016,05,15,03,50,10.00
2016,05,15,03,51,10.00
2016,05,15,03,52,10.00
2016,05,15,03,53,10.00
2016,05,15,03,54,10.00
2016,05,15,03,55,10.00
2016,05,15,03,56,10.00
2016,05,15,03,57,10.00
2016,05,15,03,58,10.00
2016,05,15,03,59,10.00
2016,05,15,04,00,10.00
2016,05,15,04,01,10.10
2016,05,15,04,02,10.10
2016,05,15,04,03,10.10
2016,05,15,04,04,10.10
2016,05,15,04,05,10.10
2016,05,15,04,06,10.10
2016,05,15,04,08,10.10
2016,05,15,04,09,10.10
2016,05,15,04,10,10.10
2016,05,15,04,11,10.10
2016,05,15,04,12,10.10
2016,05,15,04,13,10.10
2016,05,15,04,14,10.10
2016,05,15,04,15,10.10
2016,05,15,04,16,10.20
2016,05,15,04,17,10.20
2016,05,15,04,18,10.20
2016,05,15,04,19,10.20
2016,05,15,04,20,10.20
2016,05,15,04,21,10.20
2016,05,15,04,22,10.30
2016,05,15,04,23,10.30
2016,05,15,04,24,10.30
2016,05,15,04,25,10.30
2016,05,15,04,26,10.30
2016,05,15,04,27,10.30
2016,05,15,04,28,10.30
2016,05,15,04,29,10.30
2016,05,15,04,30,10.30
2016,05,15,04,31,10.30
2016,05,15,04,32,10.30
2016,05,15,04,33,10.30
2016,05,15,04,34,10.30
2016,05,15,04,35,10.30
2016,05,15,04,36,10.30
2016,05,15,04,37,10.30
2016,05,15,04,38,10.30
2016,05,15,04,39,10.30
2016,05,15,04,40,10.40
2016,05,15,04,41,10.40
2016,05,15,04,42,10.40
2016,05,15,04,43,10.40
2016,05,15,04,44,10.40
2016,05,15,04,45,10.40
2016,05,15,04,46,10.40
2016,05,15,04,47,10.40
2016,05,15,04,48,10.40
2016,05,15,04,49,10.40
2016,05,15,04,50,10.40
2016,05,15,04,51,10.40
2016,05,15,04,52,10.40
2016,05,15,04,53,10.40
2016,05,15,04,54,10.40
2016,05,15,04,55,10.50
2016,05,15,04,56,10.50
2016,05,15,04,57,10.50
2016,05,15,04,58,10.50
2016,05,15,04,59,10.50
2016,05,15,05,00,10.50
2016,05,15,05,01,10.50
2016,05,15,05,02,10.50
2016,05,15,05,03,10.50
2016,05,15,05,04,10.50
2016,05,15,05,05,10.50
2016,05,15,05,06,10.50
2016,05,15,05,07,10.50
2016,05,15,05,08,10.50
2016,05,15,05,09,10.50
2016,05,15,05,10,10.50
2016,05,15,05,11,10.50
2016,05,15,05,12,10.50
2016,05,15,05,13,10.60
2016,05,15,05,14,10.60
2016,05,15,05,15,10.60
2016,05,15,05,16,10.60
2016,05,15,05,17,10.60
2016,05,15,05,18,10.60
2016,05,15,05,19,10.60
2016,05,15,05,20,10.60
2016,05,15,05,21,10.60
2016,05,15,05,22,10.60
2016,05,15,05,23,10.60
2016,05,15,05,24,10.60
2016,05,15,05,25,10.60
2016,05,15,05,26,10.60
2016,05,15,05,27,10.60
2016,05,15,05,28,10.60
2016,05,15,05,29,10.60
2016,05,15,05,30,10.60
2016,05,15,05,31,10.60
2016,05,15,05,32,10.60
2016,05,15,05,33,10.60
2016,05,15,05,34,10.60
2016,05,15,05,35,10.60
2016,05,15,05,36,10.60
2016,05,15,05,37,10.60
2016,05,15,05,38,10.60
2016,05,15,05,39,10.60
2016,05,15,05,40,10.60
2016,05,15,05,41,10.60
2016,05,15,05,42,10.60
2016,05,15,05,43,10.60
2016,05,15,05,44,10.60
2016,05,15,05,45,10.60
2016,05,15,05,46,10.60
2016,05,15,05,47,10.60
2016,05,15,05,48,10.60
2016,05,15,05,49,10.60
2016,05,15,05,50,10.60
2016,05,15,05,51,10.70
2016,05,15,05,52,10.70
2016,05,15,05,53,10.70
2016,05,15,05,54,10.70
2016,05,15,05,55,10.70
2016,05,15,05,56,10.70
2016,05,15,05,57,10.70
2016,05,15,05,58,10.70
2016,05,15,05,59,10.70
2016,05,15,06,00,10.70
2016,05,15,06,01,10.70
2016,05,15,06,02,10.70
2016,05,15,06,03,10.70
2016,05,15,06,04,10.70
2016,05,15,06,05,10.70
2016,05,15,06,06,10.70
2016,05,15,06,07,10.70
2016,05,15,06,08,10.70
2016,05,15,06,09,10.70
2016,05,15,06,10,10.70
2016,05,15,06,11,10.70
2016,05,15,06,12,10.70
2016,05,15,06,13,10.70
2016,05,15,06,14,10.70
2016,05,15,06,15,10.70
2016,05,15,06,16,10.80
2016,05,15,06,17,10.80
2016,05,15,06,18,10.80
2016,05,15,06,19,10.80
2016,05,15,06,20,10.80
2016,05,15,06,21,10.80
2016,05,15,06,22,10.80
2016,05,15,06,23,10.80
2016,05,15,06,24,10.80
2016,05,15,06,25,10.80
2016,05,15,06,26,10.90
2016,05,15,06,27,10.90
2016,05,15,06,28,10.90
2016,05,15,06,29,10.90
2016,05,15,06,30,10.90
2016,05,15,06,31,10.90
2016,05,15,06,32,10.90
2016,05,15,06,33,10.90
2016,05,15,06,34,10.90
2016,05,15,06,35,10.90
2016,05,15,06,36,10.90
2016,05,15,06,37,10.90
2016,05,15,06,38,10.90
2016,05,15,06,39,10.90
2016,05,15,06,40,10.90
2016,05,15,06,41,10.90
2016,05,15,06,42,10.90
2016,05,15,06,43,10.90
2016,05,15,06,44,10.90
2016,05,15,06,45,10.90
2016,05,15,06,46,10.90
2016,05,15,06,47,10.90
2016,05,15,06,48,10.90
2016,05,15,06,49,10.90
2016,05,15,06,50,10.90
2016,05,15,06,51,10.80
2016,05,15,06,52,10.80
2016,05,15,06,53,10.80
2016,05,15,06,54,10.80
2016,05,15,06,55,10.80
2016,05,15,06,56,10.80
2016,05,15,06,57,10.80
2016,05,15,06,58,10.80
2016,05,15,06,59,10.80
2016,05,15,07,00,10.80
2016,05,15,07,01,10.80
2016,05,15,07,02,10.80
2016,05,15,07,03,10.80
2016,05,15,07,04,10.80
2016,05,15,07,05,10.80
2016,05,15,07,06,10.80
2016,05,15,07,07,10.80
2016,05,15,07,08,10.80
2016,05,15,07,09,10.80
2016,05,15,07,10,10.80
2016,05,15,07,11,10.80
2016,05,15,07,12,10.80
2016,05,15,07,13,10.80
2016,05,15,07,14,10.80
2016,05,15,07,15,10.80
2016,05,15,07,16,10.80
2016,05,15,07,17,10.80
2016,05,15,07,18,10.80
2016,05,15,07,19,10.80
2016,05,15,07,20,10.80
2016,05,15,07,21,10.80
2016,05,15,07,22,10.80
2016,05,15,07,23,10.80
2016,05,15,07,24,10.80
2016,05,15,07,25,10.80
2016,05,15,07,26,10.90
2016,05,15,07,27,10.90
2016,05,15,07,28,10.90
2016,05,15,07,29,10.90
2016,05,15,07,30,10.90
2016,05,15,07,31,10.90
2016,05,15,07,32,10.90
2016,05,15,07,33,10.90
2016,05,15,07,34,10.90
2016,05,15,07,35,10.90
2016,05,15,07,36,11.00
2016,05,15,07,37,11.00
2016,05,15,07,38,11.00
2016,05,15,07,39,11.00
2016,05,15,07,40,11.00
2016,05,15,07,41,11.00
2016,05,15,07,42,11.00
2016,05,15,07,43,11.00
2016,05,15,07,44,11.10
2016,05,15,07,45,11.10
2016,05,15,07,46,11.10
2016,05,15,07,47,11.10
2016,05,15,07,48,11.20
2016,05,15,07,49,11.20
2016,05,15,07,50,11.10
2016,05,15,07,51,11.10
2016,05,15,07,52,11.10
2016,05,15,07,53,11.10
2016,05,15,07,54,11.20
2016,05,15,07,55,11.20
2016,05,15,07,56,11.20
2016,05,15,07,57,11.20
2016,05,15,07,58,11.20
2016,05,15,07,59,11.20
2016,05,15,08,00,11.20
2016,05,15,08,01,11.30
2016,05,15,08,02,11.30
2016,05,15,08,03,11.30
2016,05,15,08,04,11.30
2016,05,15,08,05,11.30
2016,05,15,08,06,11.30
2016,05,15,08,07,11.40
2016,05,15,08,08,11.40
2016,05,15,08,09,11.40
2016,05,15,08,10,11.40
2016,05,15,08,11,11.40
2016,05,15,08,12,11.40
2016,05,15,08,13,11.50
2016,05,15,08,14,11.50
2016,05,15,08,15,11.50
2016,05,15,08,16,11.50
2016,05,15,08,17,11.50
2016,05,15,08,18,11.50
2016,05,15,08,19,11.60
2016,05,15,08,20,11.60
2016,05,15,08,21,11.70
2016,05,15,08,22,11.70
2016,05,15,08,23,11.70
2016,05,15,08,24,11.70
2016,05,15,08,25,11.80
2016,05,15,08,26,11.80
2016,05,15,08,27,11.80
2016,05,15,08,28,11.80
2016,05,15,08,29,11.80
2016,05,15,08,30,11.80
2016,05,15,08,31,11.80
2016,05,15,08,32,11.80
2016,05,15,08,33,11.80
2016,05,15,08,34,11.80
2016,05,15,08,35,11.80
2016,05,15,08,36,11.80
2016,05,15,08,37,11.80
2016,05,15,08,38,11.80
2016,05,15,08,39,11.80
2016,05,15,08,40,11.80
2016,05,15,08,41,11.80
2016,05,15,08,42,11.70
2016,05,15,08,43,11.70
2016,05,15,08,44,11.70
2016,05,15,08,45,11.70
2016,05,15,08,46,11.70
2016,05,15,08,47,11.70
2016,05,15,08,48,11.70
2016,05,15,08,49,11.80
2016,05,15,08,50,11.80
2016,05,15,08,51,11.80
2016,05,15,08,52,11.80
2016,05,15,08,53,11.80
2016,05,15,08,54,11.80
2016,05,15,08,55,11.80
2016,05,15,08,56,11.90
2016,05,15,08,57,11.90
2016,05,15,08,58,11.90
2016,05,15,08,59,11.90
2016,05,15,09,00,12.00
2016,05,15,09,01,12.00
2016,05,15,09,02,12.10
2016,05,15,09,03,12.10
2016,05,15,09,04,12.10
2016,05,15,09,05,12.10
2016,05,15,09,06,12.10
2016,05,15,09,07,12.20
2016,05,15,09,08,12.20
2016,05,15,09,09,12.20
2016,05,15,09,10,12.30
2016,05,15,09,11,12.30
2016,05,15,09,12,12.40
2016,05,15,09,13,12.40
2016,05,15,09,14,12.40
2016,05,15,09,15,12.40
2016,05,15,09,16,12.50
2016,05,15,09,17,12.50
2016,05,15,09,18,12.60
2016,05,15,09,19,12.60
2016,05,15,09,20,12.60
2016,05,15,09,21,12.60
2016,05,15,09,22,12.70
2016,05,15,09,23,12.70
2016,05,15,09,24,12.70
2016,05,15,09,25,12.70
2016,05,15,09,26,12.70
2016,05,15,09,27,12.60
2016,05,15,09,28,12.70
2016,05,15,09,29,12.70
2016,05,15,09,30,12.70
2016,05,15,09,31,12.70
2016,05,15,09,32,12.70
2016,05,15,09,33,12.70
2016,05,15,09,34,12.70
2016,05,15,09,35,12.60
2016,05,15,09,36,12.60
2016,05,15,09,37,12.60
2016,05,15,09,38,12.60
2016,05,15,09,39,12.60
2016,05,15,09,40,12.50
2016,05,15,09,41,12.50
2016,05,15,09,42,12.50
2016,05,15,09,43,12.50
2016,05,15,09,44,12.60
2016,05,15,09,45,12.60
2016,05,15,09,46,12.60
2016,05,15,09,47,12.60
2016,05,15,09,48,12.60
2016,05,15,09,49,12.60
2016,05,15,09,50,12.50
2016,05,15,09,51,12.50
2016,05,15,09,52,12.50
2016,05,15,09,53,12.50
2016,05,15,09,54,12.50
2016,05,15,09,55,12.50
2016,05,15,09,56,12.50
2016,05,15,09,57,12.50
2016,05,15,09,58,12.50
2016,05,15,09,59,12.50
2016,05,15,10,00,12.50
2016,05,15,10,01,12.60
2016,05,15,10,02,12.60
2016,05,15,10,03,12.60
2016,05,15,10,04,12.60
2016,05,15,10,05,12.60
2016,05,15,10,06,12.70
2016,05,15,10,07,12.70
2016,05,15,10,08,12.80
2016,05,15,10,09,12.80
2016,05,15,10,10,12.90
2016,05,15,10,11,12.90
2016,05,15,10,12,13.00
2016,05,15,10,13,13.00
2016,05,15,10,14,13.10
2016,05,15,10,15,13.10
2016,05,15,10,16,13.10
2016,05,15,10,17,13.10
2016,05,15,10,18,13.20
2016,05,15,10,19,13.20
2016,05,15,10,20,13.20
2016,05,15,10,21,13.30
2016,05,15,10,22,13.30
2016,05,15,10,23,13.40
2016,05,15,10,24,13.40
2016,05,15,10,25,13.40
2016,05,15,10,26,13.50
2016,05,15,10,27,13.50
2016,05,15,10,28,13.40
2016,05,15,10,29,13.40
2016,05,15,10,30,13.40
2016,05,15,10,31,13.30
2016,05,15,10,32,13.30
2016,05,15,10,33,13.30
2016,05,15,10,34,13.20
2016,05,15,10,35,13.20
2016,05,15,10,36,13.20
2016,05,15,10,37,13.20
2016,05,15,10,38,13.20
2016,05,15,10,39,13.30
2016,05,15,10,40,13.30
2016,05,15,10,41,13.30
2016,05,15,10,42,13.30
2016,05,15,10,43,13.30
2016,05,15,10,44,13.30
2016,05,15,10,45,13.30
2016,05,15,10,46,13.30
2016,05,15,10,47,13.30
2016,05,15,10,48,13.30
2016,05,15,10,49,13.30
2016,05,15,10,50,13.30
2016,05,15,10,51,13.30
2016,05,15,10,52,13.30
2016,05,15,10,53,13.30
2016,05,15,10,54,13.30
2016,05,15,10,55,13.30
2016,05,15,10,56,13.40
2016,05,15,10,57,13.40
2016,05,15,10,58,13.40
2016,05,15,10,59,13.50
2016,05,15,11,00,13.50
2016,05,15,11,01,13.50
2016,05,15,11,02,13.50
2016,05,15,11,03,13.40
2016,05,15,11,04,13.40
2016,05,15,11,05,13.40
2016,05,15,11,06,13.40
2016,05,15,11,07,13.40
2016,05,15,11,08,13.40
2016,05,15,11,09,13.40
2016,05,15,11,10,13.40
2016,05,15,11,11,13.40
2016,05,15,11,12,13.40
2016,05,15,11,13,13.30
2016,05,15,11,14,13.30
2016,05,15,11,15,13.20
2016,05,15,11,16,13.20
2016,05,15,11,17,13.20
2016,05,15,11,18,13.10
2016,05,15,11,19,13.10
2016,05,15,11,20,13.10
2016,05,15,11,21,13.10
2016,05,15,11,22,13.10
2016,05,15,11,23,13.20
2016,05,15,11,24,13.20
2016,05,15,11,25,13.20
2016,05,15,11,26,13.20
2016,05,15,11,27,13.20
2016,05,15,11,28,13.30
2016,05,15,11,29,13.30
2016,05,15,11,30,13.40
2016,05,15,11,31,13.50
2016,05,15,11,32,13.60
2016,05,15,11,33,13.70
2016,05,15,11,34,13.80
2016,05,15,11,35,13.80
2016,05,15,11,36,13.80
2016,05,15,11,37,13.80
2016,05,15,11,38,13.90
2016,05,15,11,39,14.10
2016,05,15,11,40,14.20
2016,05,15,11,41,14.40
2016,05,15,11,42,14.50
2016,05,15,11,43,14.60
2016,05,15,11,44,14.70
2016,05,15,11,45,14.70
2016,05,15,11,46,14.80
2016,05,15,11,47,14.80
2016,05,15,11,48,14.80
2016,05,15,11,49,14.80
2016,05,15,11,50,14.70
2016,05,15,11,51,14.70
2016,05,15,11,52,14.60
2016,05,15,11,53,14.60
2016,05,15,11,54,14.60
2016,05,15,11,55,14.70
2016,05,15,11,56,14.80
2016,05,15,11,57,14.80
2016,05,15,11,58,14.80
2016,05,15,11,59,14.80
2016,05,15,12,00,14.80
2016,05,15,12,01,14.70
2016,05,15,12,02,14.70
2016,05,15,12,03,14.70
2016,05,15,12,04,14.70
2016,05,15,12,05,14.80
2016,05,15,12,06,14.80
2016,05,15,12,07,14.90
2016,05,15,12,08,14.90
2016,05,15,12,09,14.80
2016,05,15,12,10,14.70
2016,05,15,12,11,14.70
2016,05,15,12,12,14.60
2016,05,15,12,13,14.50
2016,05,15,12,14,14.40
2016,05,15,12,15,14.30
2016,05,15,12,16,14.30
2016,05,15,12,17,14.30
2016,05,15,12,18,14.30
2016,05,15,12,19,14.30
2016,05,15,12,20,14.20
2016,05,15,12,21,14.20
2016,05,15,12,22,14.10
2016,05,15,12,23,14.00
2016,05,15,12,24,13.90
2016,05,15,12,25,13.90
2016,05,15,12,26,13.90
2016,05,15,12,27,13.90
2016,05,15,12,28,13.90
2016,05,15,12,29,13.90
2016,05,15,12,30,13.90
2016,05,15,12,31,13.80
2016,05,15,12,32,13.80
2016,05,15,12,33,13.70
2016,05,15,12,34,13.60
2016,05,15,12,35,13.50
2016,05,15,12,36,13.50
2016,05,15,12,37,13.50
2016,05,15,12,38,13.50
2016,05,15,12,39,13.40
2016,05,15,12,40,13.40
2016,05,15,12,41,13.40
2016,05,15,12,42,13.40
2016,05,15,12,43,13.50
2016,05,15,12,44,13.60
2016,05,15,12,45,13.70
2016,05,15,12,46,13.80
2016,05,15,12,47,13.80
2016,05,15,12,48,13.90
2016,05,15,12,49,13.90
2016,05,15,12,50,14.00
2016,05,15,12,51,14.00
2016,05,15,12,52,14.10
2016,05,15,12,53,14.20
2016,05,15,12,54,14.20
2016,05,15,12,55,14.40
2016,05,15,12,56,14.50
2016,05,15,12,57,14.60
2016,05,15,12,58,14.70
2016,05,15,12,59,14.90
2016,05,15,13,00,15.00
2016,05,15,13,01,15.10
2016,05,15,13,02,15.20
2016,05,15,13,03,15.30
2016,05,15,13,04,15.40
2016,05,15,13,05,15.50
2016,05,15,13,06,15.60
2016,05,15,13,07,15.50
2016,05,15,13,08,15.50
2016,05,15,13,09,15.40
2016,05,15,13,10,15.40
2016,05,15,13,11,15.50
2016,05,15,13,12,15.50
2016,05,15,13,13,15.60
2016,05,15,13,14,15.60
2016,05,15,13,15,15.50
2016,05,15,13,16,15.40
2016,05,15,13,17,15.30
2016,05,15,13,18,15.30
2016,05,15,13,19,15.20
2016,05,15,13,20,15.20
2016,05,15,13,21,15.20
2016,05,15,13,22,15.20
2016,05,15,13,23,15.20
2016,05,15,13,24,15.30
2016,05,15,13,25,15.40
2016,05,15,13,26,15.40
2016,05,15,13,27,15.50
2016,05,15,13,28,15.70
2016,05,15,13,29,15.80
2016,05,15,13,30,15.90
2016,05,15,13,31,15.90
2016,05,15,13,32,15.90
2016,05,15,13,33,15.90
2016,05,15,13,34,15.80
2016,05,15,13,35,15.80
2016,05,15,13,36,15.70
2016,05,15,13,37,15.80
2016,05,15,13,38,15.80
2016,05,15,13,39,15.70
2016,05,15,13,40,15.70
2016,05,15,13,41,15.70
2016,05,15,13,42,15.80
2016,05,15,13,43,15.80
2016,05,15,13,44,15.80
2016,05,15,13,45,15.80
2016,05,15,13,46,15.80
2016,05,15,13,47,15.90
2016,05,15,13,48,16.00
2016,05,15,13,49,16.10
2016,05,15,13,50,16.10
2016,05,15,13,51,16.10
2016,05,15,13,52,16.10
2016,05,15,13,53,16.20
2016,05,15,13,54,16.20
2016,05,15,13,55,16.20
2016,05,15,13,56,16.20
2016,05,15,13,57,16.20
2016,05,15,13,58,16.30
2016,05,15,13,59,16.30
2016,05,15,14,00,16.30
2016,05,15,14,01,16.30
2016,05,15,14,02,16.40
2016,05,15,14,03,16.40
2016,05,15,14,04,16.50
2016,05,15,14,05,16.60
2016,05,15,14,06,16.60
2016,05,15,14,07,16.70
2016,05,15,14,08,16.70
2016,05,15,14,09,16.80
2016,05,15,14,10,16.80
2016,05,15,14,11,16.80
2016,05,15,14,12,16.80
2016,05,15,14,13,16.90
2016,05,15,14,14,16.90
2016,05,15,14,15,17.00
2016,05,15,14,16,17.10
2016,05,15,14,17,17.10
2016,05,15,14,18,17.10
2016,05,15,14,19,17.20
2016,05,15,14,20,17.20
2016,05,15,14,21,17.30
2016,05,15,14,22,17.40
2016,05,15,14,23,17.40
2016,05,15,14,24,17.30
2016,05,15,14,25,17.30
2016,05,15,14,26,17.30
2016,05,15,14,27,17.40
2016,05,15,14,28,17.40
2016,05,15,14,29,17.40
2016,05,15,14,30,17.40
2016,05,15,14,31,17.40
2016,05,15,14,32,17.40
2016,05,15,14,33,17.50
2016,05,15,14,34,17.50
2016,05,15,14,35,17.50
2016,05,15,14,36,17.40
2016,05,15,14,37,17.30
2016,05,15,14,38,17.20
2016,05,15,14,39,17.20
2016,05,15,14,40,17.10
2016,05,15,14,41,17.10
2016,05,15,14,42,17.10
2016,05,15,14,43,17.10
2016,05,15,14,44,17.10
2016,05,15,14,45,17.10
2016,05,15,14,46,17.10
2016,05,15,14,47,17.10
2016,05,15,14,48,17.10
2016,05,15,14,49,17.20
2016,05,15,14,50,17.30
2016,05,15,14,51,17.30
2016,05,15,14,52,17.40
2016,05,15,14,53,17.40
2016,05,15,14,54,17.50
2016,05,15,14,55,17.60
2016,05,15,14,56,17.60
2016,05,15,14,57,17.60
2016,05,15,14,58,17.60
2016,05,15,14,59,17.60
2016,05,15,15,00,17.50
2016,05,15,15,01,17.60
2016,05,15,15,02,17.60
2016,05,15,15,03,17.60
2016,05,15,15,04,17.60
2016,05,15,15,05,17.60
2016,05,15,15,06,17.60
2016,05,15,15,07,17.50
2016,05,15,15,08,17.50
2016,05,15,15,09,17.50
2016,05,15,15,10,17.40
2016,05,15,15,11,17.50
2016,05,15,15,12,17.50
2016,05,15,15,13,17.60
2016,05,15,15,14,17.60
2016,05,15,15,15,17.70
2016,05,15,15,16,17.80
2016,05,15,15,17,17.80
2016,05,15,15,18,17.80
2016,05,15,15,19,17.80
2016,05,15,15,20,17.80
2016,05,15,15,21,17.80
2016,05,15,15,22,17.80
2016,05,15,15,23,17.70
2016,05,15,15,24,17.70
2016,05,15,15,25,17.80
2016,05,15,15,26,17.80
2016,05,15,15,27,18.00
2016,05,15,15,28,18.00
2016,05,15,15,29,18.10
2016,05,15,15,30,18.10
2016,05,15,15,31,18.10
2016,05,15,15,32,18.10
2016,05,15,15,33,18.10
2016,05,15,15,34,18.10
2016,05,15,15,35,18.10
2016,05,15,15,36,18.00
2016,05,15,15,37,18.00
2016,05,15,15,38,17.90
2016,05,15,15,39,17.80
2016,05,15,15,40,17.80
2016,05,15,15,41,17.80
2016,05,15,15,42,17.80
2016,05,15,15,43,17.70
2016,05,15,15,44,17.60
2016,05,15,15,45,17.60
2016,05,15,15,46,17.60
2016,05,15,15,47,17.60
2016,05,15,15,48,17.60
2016,05,15,15,49,17.60
2016,05,15,15,50,17.60
2016,05,15,15,51,17.70
2016,05,15,15,52,17.70
2016,05,15,15,53,17.80
2016,05,15,15,54,17.90
2016,05,15,15,55,18.00
2016,05,15,15,56,18.10
2016,05,15,15,57,18.10
2016,05,15,15,58,18.20
2016,05,15,15,59,18.10
2016,05,15,16,00,18.10
2016,05,15,16,01,18.10
2016,05,15,16,02,18.10
2016,05,15,16,03,18.10
2016,05,15,16,04,18.20
2016,05,15,16,05,18.30
2016,05,15,16,06,18.30
2016,05,15,16,07,18.30
2016,05,15,16,08,18.30
2016,05,15,16,09,18.30
2016,05,15,16,10,18.30
2016,05,15,16,11,18.30
2016,05,15,16,12,18.30
2016,05,15,16,13,18.20
2016,05,15,16,14,18.20
2016,05,15,16,15,18.10
2016,05,15,16,16,18.10
2016,05,15,16,17,18.10
2016,05,15,16,18,18.00
2016,05,15,16,19,18.00
2016,05,15,16,20,18.00
2016,05,15,16,21,18.00
2016,05,15,16,22,18.00
2016,05,15,16,23,18.00
2016,05,15,16,24,17.90
2016,05,15,16,25,18.00
2016,05,15,16,26,18.00
2016,05,15,16,27,18.00
2016,05,15,16,28,18.00
2016,05,15,16,29,17.90
2016,05,15,16,30,17.90
2016,05,15,16,31,17.90
2016,05,15,16,32,17.80
2016,05,15,16,33,17.70
2016,05,15,16,34,17.70
2016,05,15,16,35,17.70
2016,05,15,16,36,17.70
2016,05,15,16,37,17.60
2016,05,15,16,38,17.60
2016,05,15,16,39,17.60
2016,05,15,16,40,17.60
2016,05,15,16,41,17.60
2016,05,15,16,42,17.70
2016,05,15,16,43,17.70
2016,05,15,16,44,17.80
2016,05,15,16,45,17.90
2016,05,15,16,46,18.00
2016,05,15,16,47,18.00
2016,05,15,16,48,18.10
2016,05,15,16,49,18.10
2016,05,15,16,50,18.10
2016,05,15,16,51,18.10
2016,05,15,16,52,18.10
2016,05,15,16,53,18.10
2016,05,15,16,54,18.10
2016,05,15,16,55,18.10
2016,05,15,16,56,18.20
2016,05,15,16,57,18.10
2016,05,15,16,58,18.00
2016,05,15,16,59,18.00
2016,05,15,17,00,17.90
2016,05,15,17,01,17.80
2016,05,15,17,02,17.70
2016,05,15,17,03,17.60
2016,05,15,17,04,17.60
2016,05,15,17,05,17.50
2016,05,15,17,06,17.50
2016,05,15,17,07,17.50
2016,05,15,17,08,17.50
2016,05,15,17,09,17.60
2016,05,15,17,10,17.60
2016,05,15,17,11,17.70
2016,05,15,17,12,17.70
2016,05,15,17,13,17.80
2016,05,15,17,14,17.80
2016,05,15,17,15,17.80
2016,05,15,17,16,17.90
2016,05,15,17,17,17.90
2016,05,15,17,18,18.00
2016,05,15,17,19,18.00
2016,05,15,17,20,18.10